Preview of NWS' New Version of Forecast
This preview is not operational and should not be used for support decisions.

Regional Weather Roundup (RWR)

Issued by National Weather Service (NWS)

                            
000
ASUS43 KDMX 202306
RWRIA 

WEATHER ROUNDUP FOR IOWA
NATIONAL WEATHER SERVICE DES MOINES IA
500 PM CST WED FEB 20 2019

NOTE: "FAIR" INDICATES FEW OR NO CLOUDS BELOW 12,000 FEET WITH NO
SIGNIFICANT WEATHER AND/OR OBSTRUCTIONS TO VISIBILITY.

* - THESE STATIONS ARE NOT NWS STATIONS...THUS NOT UNDER NWS
QUALITY CONTROL.  THEY ALSO DO NOT REPORT WEATHER SUCH 
AS PRECIPITATION OR FOG.  

IAZ001>003-012>014-020>022-031>034-043>046-210000-
   NORTHWEST IOWA
  
CITY           SKY/WX    TMP DP  RH WIND       PRES   REMARKS
CARROLL *      CLEAR     25  18  74 SW17G25   29.70R WCI  11          
CHEROKEE *     PTCLDY    21  17  84 W9        29.69R WCI  11          
DENISON *      CLEAR     25  18  74 SW15      29.72R WCI  12          
LE MARS *      LGT SNOW  21  19  93 W8        29.69R WCI  12          
ORANGE CITY *  LGT SNOW  21  19  93 W14       29.66R WCI   8          
SHELDON *      PTCLDY    18  18 100 W15       29.64R WCI   3          
SIOUX CITY     SUNNY     23  15  71 W14       29.71R WCI  11          
SPENCER        CLOUDY    21  15  78 W18       29.64R WCI   6          
STORM LAKE *   CLEAR     19  18  93 W17       29.66R WCI   4          
$$
 
IAZ055>058-069>071-079>083-090>094-210000-
   SOUTHWEST IOWA
  
CITY           SKY/WX    TMP DP  RH WIND       PRES   REMARKS
ATLANTIC *     CLEAR     27  21  80 SW13      29.74R WCI  16          
AUDUBON *      CLEAR     27  18  69 SW3G17    29.72R                  
CLARINDA *     SUNNY     28  19  69 SW10      29.82R WCI  19          
COUNCIL BLFS * SUNNY     28  19  69 SW15G22   29.74R WCI  17          
CRESTON *      CLEAR     27  19  74 SW20G26   29.76R WCI  13          
HARLAN  *      CLEAR     25  18  74 W12       29.73R WCI  14          
LAMONI         CLEAR     30  20  66 SW17G26   29.77R WCI  18          
RED OAK *      SUNNY     28  19  69 SW12      29.78R WCI  18          
SHENANDOAH *   SUNNY     28  21  74 SW15      29.80R WCI  17          
$$
 
IAZ047>049-059>061-072>074-084-210000-
   CENTRAL IOWA
  
CITY           SKY/WX    TMP DP  RH WIND       PRES   REMARKS
AMES           MOCLDY    28  21  75 SW17      29.71R WCI  16          
ANKENY *       PTCLDY    30  21  69 SW17G26   29.74R WCI  18          
BOONE *        PTCLDY    28  23  80 W17G25    29.69R WCI  16          
CHARITON *     PTCLDY    32  23  69 SW18G29   29.75R WCI  20          
DES MOINES     MOCLDY    29  21  72 W18G29    29.74R WCI  16          
GRINNELL*      CLOUDY    31  26  82 SW17      29.73R WCI  19          
KNOXVILLE *    CLOUDY    32  32 100 SW15G24   29.74R WCI  22          
MARSHALLTOWN   CLOUDY    30  25  81 SW17      29.69R WCI  18          
NEWTON *       CLOUDY    30  27  86 SW20      29.72R WCI  18          
PELLA *        CLOUDY    32  24  72 W12G23    29.75R WCI  23          
PERRY *        FAIR      28  22  79 SW14      29.72R WCI  17          
$$
 
IAZ004>006-015-016-023>025-035-036-210000-
   NORTH CENTRAL IOWA
  
CITY           SKY/WX    TMP DP  RH WIND       PRES   REMARKS
ALGONA *       CLOUDY    23  21  93 SW20      29.64R FOG     WCI   8  
CLARION *      MOCLDY    25  21  86 SW21      29.67R FOG     WCI  10  
ESTHERVILLE    PTCLDY    18  14  84 SW17      29.62R FOG     WCI   3  
FORT DODGE *   CLEAR     25  18  74 SW20G26   29.68R WCI  11          
MASON CITY     CLOUDY    26  21  81 W18G26    29.64R WCI  13          
FOREST CITY *  CLOUDY    28  23  80 W12       29.63R WCI  18          
IOWA FALLS *   MIX PCPN  29  25  84 SW24      29.69R WCI  15          
$$

IAZ007>011-017>019-026>030-037>042-050>054-066-210000-
   NORTHEAST IOWA
  
CITY           SKY/WX    TMP DP  RH WIND       PRES   REMARKS
CEDAR RAPIDS   CLOUDY    32  27  81 SW15      29.70R WCI  22          
CHARLES CITY * LGT SNOW  28  25  86 W15G22    29.63S WCI  17          
CLINTON *      CLOUDY    34  32  92 SW15      29.72R WCI  24          
DECORAH *      CLOUDY    30  30 100 SW10G17   29.61R WCI  21          
DUBUQUE        CLOUDY    32  28  85 SW16      29.66R WCI  21          
OELWEIN *      CLOUDY    30  28  93 SW15      29.66R WCI  19          
WATERLOO       CLOUDY    31  25  78 SW14      29.67R WCI  21          
$$
 
IAZ064-065-067-068-078-210000-
   EAST CENTRAL IOWA
  
CITY           SKY/WX    TMP DP  RH WIND       PRES   REMARKS
DAVENPORT      CLOUDY    35  30  82 SW14      29.74R WCI  26          
IOWA CITY      CLOUDY    34  27  75 SW17G28   29.75R WCI  23          
MT. PLEASANT * CLOUDY    36  30  80 SW15G26   29.76R WCI  26          
MUSCATINE *    CLOUDY    36  28  75 W18       29.76R WCI  25          
QUAD CITIES    CLOUDY    36  32  85 SW12      29.73R WCI  28          
$$
 
IAZ062-063-075>077-085>089-095>099-210000-
   SOUTHEAST IOWA
  
CITY           SKY/WX    TMP DP  RH WIND       PRES   REMARKS
BURLINGTON     CLOUDY    36  29  75 W10G21    29.77R WCI  28          
FAIRFIELD *    CLOUDY    34  25  69 W17       29.75R WCI  23          
FORT MADISON * CLOUDY    36  30  80 SW12      29.78R WCI  27          
KEOKUK *       CLOUDY    36  32  87 W15       29.78R WCI  26          
OSKALOOSA *    CLOUDY    32  26  77 SW23      29.75R WCI  19          
OTTUMWA        CLOUDY    33  24  69 SW21G30   29.75R WCI  21          
WASHINGTON *   CLOUDY    34  28  80 W21G30    29.75R WCI  22          
$$

ABBREVIATIONS USED IN REMARKS
   TC - TEMPERATURES IN CELSIUS
  WCI - WIND CHILL INDEX
   HX - HEAT INDEX
  VSB - VISIBILITY  
$$